AirNav   TITAN Aviation Fuels
 
 1103 users online  

03D Memphis Memorial Airport
Memphis, Missouri, USA

GOING TO MEMPHIS?


FAA INFORMATION EFFECTIVE 17 JUNE 2021

Location

FAA Identifier: 03D
Lat/Long: 40-26-50.1000N 092-13-37.0000W
40-26.835000N 092-13.616667W
40.4472500,-92.2269444
(estimated)
Elevation: 813.3 ft. / 247.9 m (surveyed)
Variation: 03E (1985)
From city: 3 miles SW of MEMPHIS, MO
Time zone: UTC -5 (UTC -6 during Standard Time)
Zip code: 63555

Airport Operations

Airport use: Open to the public
Activation date: 05/1966
Control tower: no
ARTCC: KANSAS CITY CENTER
FSS: COLUMBIA FLIGHT SERVICE STATION
NOTAMs facility: COU (NOTAM-D service available)
Attendance: UNATNDD
Wind indicator: lighted
Segmented circle: yes
Lights: DUSK-0100. MIRL RY 12/30 AND PAPI RYS 12 AND 30 OPER DUSK TO 0100. TO INCR INTST AND ACTVT MIRL RY 12/30 AND PAPI RYS 12 AND 30 - CTAF.
Beacon: white-green (lighted land airport)
Operates sunset to sunrise.

Airport Communications

CTAF: 122.9
  • APCH/DEP SVC PRVDD BY KANSAS CITY ARTCC ON FREQS 126.225/317.775 (QUINCY RCAG).

Nearby radio navigation aids

VOR radial/distance  VOR name  Freq  Var
IRKr036/25.1KIRKSVILLE VORTAC114.6006E
OTMr167/35.2OTTUMWA VOR/DME111.6006E

 
NDB name  Hdg/Dist  Freq  Var  ID
BLOOMFIELD151/20.126902EBEX -... . -..-
KEOKUK266/36.236602EEOK . --- -.-

Airport Services

Fuel available: 100LL
100LL:FOR FUEL CALL (660) 465-2611.
Parking: tiedowns
Bottled oxygen: NONE
Bulk oxygen: NONE

Runway Information

Runway 12/30

Dimensions: 3300 x 60 ft. / 1006 x 18 m
Surface: concrete, in fair condition
ISOLATED AREAS WITH LONGITUDINAL CRACKING.
Weight bearing capacity: 
Single wheel: 12.5
Runway edge lights: medium intensity
RUNWAY 12  RUNWAY 30
Latitude: 40-26.979298N40-26.691547N
Longitude: 092-13.919165W092-13.315655W
Elevation: 813.2 ft.805.7 ft.
Traffic pattern: leftleft
Markings: nonprecision, in good conditionnonprecision, in good condition
Visual slope indicator: 2-light PAPI on left (3.00 degrees glide path)2-light PAPI on left (3.00 degrees glide path)
Touchdown point: yes, no lightsyes, no lights

Airport Ownership and Management from official FAA records

Ownership: Publicly-owned
Owner: CITY OF MEMPHIS
125 W JEFFERSON
MEMPHIS, MO 63555
Phone 660-465-7285
Manager: FRED CLAPP
404 WATKINS
MEMPHIS, MO 63555
Phone 660-465-2195
ARPT COMMITTEE CHAIRMAN.

Airport Operational Statistics

Aircraft based on the field: 6
Single engine airplanes: 6
    
Aircraft operations: avg 48/week *
72% local general aviation
28% transient general aviation
* for 12-month period ending 31 December 2017

Additional Remarks

RADIO CONTROLLED MODEL PLANES ON & INVOF ARPT.
FOR CD CTC KANSAS CITY ARTCC AT 913-254-8508.

Instrument Procedures

NOTE: All procedures below are presented as PDF files. If you need a reader for these files, you should download the free Adobe Reader.

NOT FOR NAVIGATION. Please procure official charts for flight.
FAA instrument procedures published for use from 17 June 2021 at 0901Z to 15 July 2021 at 0900Z.

 
IAPs - Instrument Approach Procedures
RNAV (GPS) RWY 12   download (168KB)
RNAV (GPS) RWY 30   download (175KB)
NOTE: Special Take-Off Minimums/Departure Procedures apply   download (419KB)

Other nearby airports with instrument procedures:

4K6 - Bloomfield Municipal Airport (19 nm NW)
KIRK - Kirksville Regional Airport (26 nm SW)
6M6 - Lewis County Regional Airport (32 nm SE)
KTVK - Centerville Municipal Airport (34 nm NW)
KEOK - Keokuk Municipal Airport (36 nm E)
 
Loc | Ops | Rwys | IFR | FBO | Links
Com | Nav | Svcs | Stats | Notes
Area around 03D (Memphis Memorial Airport)
 
Road maps at: MapQuest Bing Google
 
Aerial photo
No photo
 
Sectional chart

 
Airport distance calculator
Flying to Memphis Memorial Airport? Find the distance to fly.

From to 03D

Sunrise and sunset
Times for 19-Jun-2021
 Local
(UTC-5)
 Zulu
(UTC)
Morning civil twilight05:0610:06
Sunrise05:3910:39
Sunset20:4101:41
Evening civil twilight21:1402:14

Current date and time
Zulu (UTC)  19-Jun-2021 16:17:00
Local (UTC-5)  19-Jun-2021 11:17:00
 
METAR
KIRK 
26nm SW 
191555Z AUTO 24007KT 10SM FEW025 SCT042 30/24 A2983 RMK AO2 SLP092 T03000239
KTVK 
34nm NW 
191535Z AUTO 10SM CLR 27/22 A2984 RMK AO2
KEOK 
37nm E 
191555Z AUTO 21013G18KT 10SM FEW014 26/24 A2982 RMK AO2
KFFL 
37nm N 
191555Z AUTO 29005KT 10SM CLR 26/25 A2982 RMK A01
KOTM 
40nm N 
191553Z AUTO 05005KT 10SM CLR 27/17 A2982 RMK AO2 SLP090 T02670172
KFSW 
44nm E 
191555Z AUTO 18006KT 10SM 26/23 A2983 RMK AO2 P0001
KMPZ 
44nm NE 
191555Z AUTO 21008KT 10SM CLR 27/23 A2982 RMK AO2
KOOA 
48nm N 
191555Z AUTO 00000KT 10SM CLR 27/16 A2984 RMK AO2 T02730155
TAF
KOTM 
40nm N 
191120Z 1912/2012 24006KT P6SM SCT100 FM191500 33005KT P6SM FEW250 FM201000 20007KT 6SM SHRA VCTS BKN090CB
NOTAMs
Click for the latest NOTAMs
NOTAMs are issued by the DoD/FAA and will open in a separate window not controlled by AirNav.

 

 
 

FBO, Fuel Providers, and Aircraft Ground Support

  
 Business Name 
 
 Contact 
 
 Services / Description 
 
Fuel Prices
 
Comments
  
Memphis Memorial Airport 660-465-7285
no information available

If you are affiliated with Memphis Memorial Airport and would like to show here your services, contact info, web link, logo, and more, click here
100LL
AS $3.62 
 Updated 16-Jun-2021
 
   1 read write
AS=Assisted/Self Service
Update Fuel Prices
 

Would you like to see your business listed on this page?

 If your business provides an interesting product or service to pilots, flight crews, aircraft, or users of the Memphis Memorial Airport, you should consider listing it here.  To start the listing process, click on the button below
 
Add a business
 

Other Pages about Memphis Memorial Airport

Update a link
 
Copyright © AirNav, LLC. All rights reserved. Privacy Policy  Contact